Houlton, ME

12:59 PM EST on February 08, 2016 (GMT -0500)
Houlton International

Weather History for KHUL - February, 2014

Change the Weather History Date:

Monday, February 17, 2014

  Actual Average Record
Temperature  
Mean Temperature 12 °F 16 °F  
Max Temperature 22 °F 27 °F 47 °F (2006)
Min Temperature 2 °F 4 °F -26 °F (2004)
Degree Days  
Heating Degree Days 53 49  
Month to date heating degree days 910 876  
Since 1 July heating degree days 6038 6051  
Cooling Degree Days 0 0  
Month to date cooling degree days 0 0  
Year to date cooling degree days 0 0  
Moisture  
Dew Point 3 °F    
Average Humidity 62    
Maximum Humidity 73    
Minimum Humidity 51    
Precipitation  
Precipitation T in 0.06 in 1.36 in (1954)
Month to date precipitation 0.91 1.21  
Year to date precipitation 5.09 4.07  
Sea Level Pressure  
Sea Level Pressure 29.94 in    
Wind  
Wind Speed 12 mph (NW)    
Max Wind Speed 23 mph    
Max Gust Speed 33 mph    
Visibility 9 miles    
Events Snow    
T = Trace of Precipitation, MM = Missing Value Source: NWS Daily Summary

Daily Weather History Graph

Daily Weather History Graph

Search for Another Location

Airport or City:

Trip Planner

Search our weather history database for the weather conditions in past years. The results will help you decide how hot, cold, wet, or windy it might be!

Date:

Astronomy

Feb. 17, 2014 Rise Set
Actual Time 6:30 AM EST 5:00 PM EST
Civil Twilight 6:00 AM EST 5:30 PM EST
Nautical Twilight 5:25 AM EST 6:05 PM EST
Astronomical Twilight 4:50 AM EST 6:40 PM EST
Moon 8:03 PM EST (2/17) 7:19 AM EST (2/17)
Length of Visible Light 11h 30m
Length of Day
10h 29m
Waning Gibbous, 93% of the Moon is Illuminated
Feb 17
Waning Gibbous
Feb 22
Last Quarter
Mar 1
New
Mar 8
First Quarter
Mar 16
Full

Hourly Weather History & Observations

Time (EST) Temp. Windchill Dew Point Humidity Pressure Visibility Wind Dir Wind Speed Gust Speed Precip Events Conditions
12:01 AM 14.0 °F 2.9 °F 9.0 °F 80% 29.67 in 1.8 mi NW 8.1 mph - 0.00 in Snow Light Snow
12:04 AM 14.0 °F 3.9 °F 9.0 °F 80% 29.68 in 1.2 mi NW 6.9 mph - 0.00 in Snow Light Snow
12:18 AM 14.0 °F 0.5 °F 9.0 °F 80% 29.69 in 2.0 mi NNW 11.5 mph 17.3 mph 0.00 in Snow Light Snow
12:26 AM 12.9 °F -1.6 °F 7.0 °F 77% 29.69 in 5.0 mi NNW 12.7 mph - 0.00 in Snow Light Snow
12:44 AM 12.9 °F 0.7 °F 6.1 °F 74% 29.69 in 10.0 mi NNW 9.2 mph - 0.00 in   Overcast
12:53 AM 12.9 °F -1.6 °F 6.1 °F 74% 29.73 in 10.0 mi NW 12.7 mph 20.7 mph 0.00 in   Mostly Cloudy
1:53 AM 10.9 °F -1.8 °F 1.9 °F 67% 29.75 in 10.0 mi NW 9.2 mph - N/A   Clear
2:53 AM 10.9 °F -0.8 °F 3.0 °F 70% 29.76 in 10.0 mi WNW 8.1 mph - N/A   Clear
3:53 AM 10.9 °F -3.4 °F 3.0 °F 70% 29.78 in 10.0 mi NW 11.5 mph 18.4 mph N/A   Overcast
4:39 AM 10.9 °F -2.6 °F 3.0 °F 70% 29.76 in 10.0 mi WNW 10.4 mph 20.7 mph N/A   Overcast
4:53 AM 10.0 °F -2.9 °F 3.0 °F 73% 29.81 in 10.0 mi WNW 9.2 mph - N/A   Overcast
5:45 AM 9.0 °F -5.9 °F 1.0 °F 70% 29.80 in 10.0 mi NW 11.5 mph - N/A   Scattered Clouds
5:53 AM 9.0 °F -5.1 °F 1.0 °F 70% 29.83 in 10.0 mi NW 10.4 mph - N/A   Scattered Clouds
6:53 AM 9.0 °F -5.1 °F 1.0 °F 70% 29.86 in 10.0 mi NW 10.4 mph - N/A   Clear
7:53 AM 10.0 °F -2.9 °F 1.0 °F 67% 29.90 in 10.0 mi NW 9.2 mph - N/A   Partly Cloudy
8:53 AM 10.9 °F -7.9 °F 1.0 °F 64% 29.91 in 7.0 mi NW 20.7 mph 28.8 mph N/A   Partly Cloudy
9:53 AM 14.0 °F -0.8 °F 3.0 °F 62% 29.95 in 10.0 mi NNW 13.8 mph 21.9 mph 0.00 in   Mostly Cloudy
10:53 AM 16.0 °F 0.6 °F 3.9 °F 59% 29.96 in 10.0 mi NNW 16.1 mph 19.6 mph N/A   Clear
11:53 AM 19.0 °F 3.6 °F 6.1 °F 57% 29.96 in 10.0 mi NNW 18.4 mph 24.2 mph N/A   Clear
12:53 PM 19.9 °F 5.2 °F 6.1 °F 55% 29.98 in 9.0 mi NNW 17.3 mph 32.2 mph N/A   Clear
1:53 PM 21.9 °F 9.8 °F 7.0 °F 53% 30.01 in 9.0 mi NNW 12.7 mph 26.5 mph N/A   Clear
2:53 PM 21.0 °F 7.6 °F 6.1 °F 53% 30.04 in 10.0 mi WNW 15.0 mph 26.5 mph N/A   Clear
3:53 PM 19.9 °F 6.2 °F 5.0 °F 52% 30.08 in 10.0 mi NNW 15.0 mph 25.3 mph N/A   Clear
4:53 PM 18.0 °F 6.1 °F 3.0 °F 52% 30.12 in 10.0 mi NNW 10.4 mph - N/A   Clear
5:53 PM 16.0 °F 1.7 °F -0.0 °F 49% 30.18 in 10.0 mi NW 13.8 mph 20.7 mph N/A   Clear
6:53 PM 12.9 °F 1.6 °F -2.0 °F 51% 30.21 in 10.0 mi North 8.1 mph - N/A   Clear
7:53 PM 12.0 °F -2.0 °F -2.0 °F 53% 30.23 in 10.0 mi NW 11.5 mph 18.4 mph N/A   Clear
8:53 PM 10.9 °F -1.8 °F -2.0 °F 56% 30.25 in 10.0 mi NW 9.2 mph - N/A   Clear
9:53 PM 10.0 °F -1.9 °F -2.0 °F 58% 30.26 in 10.0 mi NW 8.1 mph - N/A   Clear
10:53 PM 7.0 °F -1.7 °F -4.0 °F 61% 30.27 in 10.0 mi North 4.6 mph - N/A   Clear
11:53 PM 3.0 °F -8.0 °F -6.0 °F 66% 30.27 in 10.0 mi NNE 5.8 mph - N/A   Clear